Printer-friendly version
Follow the MPC on Twitter Follow the MPC on Facebook The MPC blog
Minor Planet Center

MPEC 2006-S24 : 2006 SH7

The following Minor Planet Electronic Circular may be linked-to from your own Web pages, but must not otherwise be redistributed electronically.

A form allowing access to any MPEC is at the bottom of this page.


Read MPEC 2006-S23 Read MPEC 2006-S25


M.P.E.C. 2006-S24                                Issued 2006 Sept. 19, 10:51 UT

     The Minor Planet Electronic Circulars contain information on unusual
         minor planets and routine data on comets.  They are published
   on behalf of Commission 20 of the International Astronomical Union by the
          Minor Planet Center, Smithsonian Astrophysical Observatory,
                          Cambridge, MA 02138, U.S.A.

                  Supported in part by the Brinson Foundation
                  Supported in part by the TABASGO Foundation
             Prepared using the Tamkin Foundation Computer Network

                              MPC@CFA.HARVARD.EDU
          URL http://cfa-www.harvard.edu/iau/mpc.html  ISSN 1523-6714

                                   2006 SH7

Observations:
     K06S07H* C2006 09 18.33929 02 37 23.19 -00 26 34.6          19.1 V ES024703
     K06S07H  C2006 09 18.34737 02 37 24.24 -00 26 33.5          20.7 V ES024703
     K06S07H  C2006 09 18.35544 02 37 25.24 -00 26 33.2          19.6 V ES024703
     K06S07H  C2006 09 18.36348 02 37 26.47 -00 26 31.5          19.6 V ES024703
     K06S07H  C2006 09 18.39723 02 37 30.90 -00 26 31.7          20.2 V ES024703
     K06S07H  C2006 09 18.40675 02 37 32.12 -00 26 29.9          19.8 V ES024703
     K06S07H  C2006 09 18.41630 02 37 33.38 -00 26 28.6          19.9 V ES024703
     K06S07H  C2006 09 18.42586 02 37 34.64 -00 26 27.9          19.6 V ES024703
     K06S07H  C2006 09 19.12078 02 39 12.38 -00 25 39.4                 ES024J95
     K06S07H  C2006 09 19.15213 02 39 16.77 -00 25 37.3                 ES024J95
     K06S07H  C2006 09 19.15749 02 39 17.55 -00 25 37.3          19.4 R ES024J95
     K06S07H  C2006 09 19.38837 02 39 50.26 -00 25 16.4          20.4 R ES024734
     K06S07H  C2006 09 19.38984 02 39 50.48 -00 25 16.9          20.0 R ES024734
     K06S07H  C2006 09 19.39130 02 39 50.69 -00 25 17.2          20.1 R ES024734

Observer details:
703 Catalina Sky Survey.  Observer R. A. Kowalski.  Measurers E. C. Beshore,
    E. J. Christensen, G. J. Garradd, A. R. Gibbs, A. D. Grauer, R. E. Hill,
    R. A. Kowalski, S. M. Larson, R. H. McNaught.  0.68-m Schmidt + CCD.
734 Farpoint Observatory.  Observer G. Hug.  0.7-m reflector + CCD.
J95 Great Shefford.  Observer P. Birtwhistle.  0.40-m f/6.0 Schmidt-Cassegrain
    + CCD.

Orbital elements:
2006 SH7                                                 Earth MOID = 0.1311 AU
Epoch 2006 Sept. 22.0 TT = JDT 2454000.5                MPC
M 351.90242              (2000.0)            P               Q
n   0.12412553     Peri.  347.81045     +0.30753788     -0.94627012
a   3.9801121      Node    84.21461     +0.88123914     +0.24361151
e   0.7197249      Incl.    5.76671     +0.35894015     +0.21266473
P   7.94           H   19.3           G   0.15           U   9
Residuals in seconds of arc
060918 703  1.3+  0.1-    060918 703  0.8-  0.4-    060919 J95  1.0+  0.3-
060918 703  0.7+  0.4+    060918 703  1.1-  0.1+    060919 734  0.7-  0.5+
060918 703  0.6-  0.1+    060918 703  1.5-  0.1+    060919 734  0.4-  0.1-
060918 703  1.6+  1.2+    060919 J95  1.1-  0.3+    060919 734  0.2-  0.5-
060918 703  0.1+  1.5-    060919 J95  0.4+  0.1+

Ephemeris:
2006 SH7                 a,e,i = 3.98, 0.72, 6                   q = 1.1155
Date    TT    R. A. (2000) Decl.     Delta      r     Elong.  Phase     V
2006 09 12    02 23.21   -00 34.4    0.611    1.497   134.0    28.9    20.4
2006 09 22    02 46.13   -00 21.7    0.504    1.416   137.3    28.7    19.8
2006 10 02    03 12.93   -00 03.3    0.412    1.341   139.5    29.0    19.3
2006 10 12    03 45.68   +00 35.2    0.335    1.274   140.1    30.1    18.8
2006 10 22    04 26.90   +01 53.9    0.274    1.215   138.9    32.6    18.3
2006 11 01    05 18.69   +04 16.2    0.230    1.168   135.8    36.3    17.9
2006 11 11    06 20.15   +07 47.1    0.204    1.135   131.2    41.0    17.7
2006 11 21    07 24.05   +11 51.7    0.198    1.118   126.9    45.0    17.7
2006 12 01    08 20.15   +15 40.6    0.207    1.117   124.8    46.4    17.9
2006 12 11    09 02.36   +18 52.9    0.228    1.134   126.1    44.5    18.1
2006 12 21    09 29.79   +21 36.8    0.255    1.166   130.7    39.8    18.2
2006 12 31    09 44.31   +24 02.0    0.288    1.213   137.8    33.0    18.4
2007 01 10    09 48.75   +26 06.7    0.328    1.271   146.7    25.2    18.6
2007 01 20    09 46.08   +27 43.1    0.378    1.338   156.1    17.3    18.7
2007 01 30    09 39.75   +28 41.5    0.439    1.413   164.0    11.1    19.0
2007 02 09    09 32.96   +28 59.3    0.516    1.492   165.9     9.3    19.4
2007 02 19    09 27.87   +28 42.0    0.610    1.576   160.5    12.1    19.9
2007 03 01    09 25.68   +27 57.7    0.720    1.663   152.4    16.0    20.6
2007 03 11    09 26.58   +26 55.5    0.847    1.751   144.0    19.5    21.1
2007 03 21    09 30.25   +25 41.8    0.989    1.839   135.8    22.2    21.7

Timothy B. Spahr             (C) Copyright 2006 MPC           M.P.E.C. 2006-S24

Read MPEC 2006-S23 Read MPEC 2006-S25


MPEC number:

Enter an MPEC number in one of the following forms:

  • 1997-B01 (the full form)
  • J97B01 (the packed version of the full form)
  • B01 (the abbreviated form)

Valid HTML 4.01!